📊 Raw Sensor Data
Showing records 44226 to 44250 of 85,033 total
| ID | Distance (ft) | Battery V | Battery A | Int Temp (°F) | Int Humid (%) | Ext Temp (°F) | Solar V | RSSI | SNR | Time Stamp |
|---|---|---|---|---|---|---|---|---|---|---|
| 40820 | 15.4 | 3.90 | -5 | 55 | 43 | 56 | 0.00 | -68 | 8 | 05/17/2025 02:00 AM |
| 40819 | 15.4 | 3.96 | -5 | 55 | 43 | 56 | 0.00 | -69 | 8 | 05/17/2025 01:45 AM |
| 40818 | 15.4 | 3.91 | -5 | 55 | 43 | 56 | 0.10 | -68 | 8 | 05/17/2025 01:30 AM |
| 40817 | 15.4 | 3.91 | -5 | 55 | 43 | 56 | 0.00 | -69 | 8 | 05/17/2025 01:15 AM |
| 40816 | 15.4 | 3.91 | -5 | 55 | 44 | 55 | 0.00 | -69 | 8 | 05/17/2025 01:00 AM |
| 40815 | 15.4 | 3.91 | -5 | 55 | 44 | 56 | 0.00 | -69 | 8 | 05/17/2025 12:45 AM |
| 40814 | 15.4 | 3.96 | -5 | 55 | 44 | 56 | 0.10 | -69 | 8 | 05/17/2025 12:30 AM |
| 40813 | 14.8 | 3.91 | -5 | 56 | 44 | 57 | 0.10 | -68 | 7 | 05/17/2025 12:15 AM |
| 40812 | 14.8 | 3.91 | -5 | 57 | 44 | 57 | 0.00 | -68 | 7 | 05/17/2025 12:00 AM |
| 40811 | 14.8 | 3.91 | -5 | 58 | 44 | 58 | 0.10 | -68 | 7 | 05/16/2025 11:45 PM |
| 40810 | 14.7 | 3.91 | -5 | 58 | 44 | 59 | 0.10 | -67 | 8 | 05/16/2025 11:30 PM |
| 40809 | 14.7 | 3.91 | -5 | 59 | 44 | 60 | 0.00 | -69 | 8 | 05/16/2025 11:15 PM |
| 40808 | 14.7 | 3.97 | -5 | 60 | 44 | 60 | 0.00 | -67 | 8 | 05/16/2025 11:00 PM |
| 40807 | 14.7 | 3.91 | -5 | 61 | 44 | 61 | 0.00 | -69 | 8 | 05/16/2025 10:45 PM |
| 40806 | 14.7 | 3.91 | -5 | 61 | 45 | 62 | 0.00 | -68 | 8 | 05/16/2025 10:30 PM |
| 40805 | 14.6 | 3.92 | -5 | 61 | 45 | 62 | 0.10 | -70 | 8 | 05/16/2025 10:15 PM |
| 40804 | 14.6 | 3.92 | -5 | 62 | 45 | 63 | 0.00 | -68 | 7 | 05/16/2025 10:00 PM |
| 40803 | 14.7 | 3.92 | -5 | 62 | 46 | 63 | 0.10 | -68 | 8 | 05/16/2025 09:45 PM |
| 40802 | 14.6 | 3.92 | -5 | 63 | 46 | 64 | 0.10 | -68 | 8 | 05/16/2025 09:30 PM |
| 40801 | 14.6 | 3.92 | -5 | 64 | 47 | 64 | 0.10 | -69 | 8 | 05/16/2025 09:15 PM |
| 40800 | 14.7 | 3.92 | -5 | 65 | 48 | 65 | 0.00 | -69 | 8 | 05/16/2025 09:00 PM |
| 40799 | 15.3 | 3.98 | -5 | 66 | 49 | 66 | 0.00 | -68 | 7 | 05/16/2025 08:45 PM |
| 40798 | 15.3 | 3.98 | -5 | 67 | 50 | 67 | 0.10 | -68 | 7 | 05/16/2025 08:30 PM |
| 40797 | 15.3 | 3.91 | -9 | 69 | 52 | 68 | 1.40 | -68 | 8 | 05/16/2025 08:15 PM |
| 40796 | 15.3 | 3.91 | -20 | 71 | 53 | 69 | 3.00 | -67 | 8 | 05/16/2025 08:00 PM |